Pine Bluff, AR

7:19 AM CDT on September 26, 2017 (GMT -0500)
Grider

Weather History for KPBF - April, 2013

Change the Weather History Date:

Wednesday, April 17, 2013

  Actual Average Record
Temperature  
Mean Temperature 77 °F 63 °F  
Max Temperature 84 °F 75 °F 92 °F (2006)
Min Temperature 70 °F 52 °F 34 °F (1951)
Degree Days  
Heating Degree Days 0 4  
Month to date heating degree days 114 95  
Since 1 July heating degree days 2819 2830  
Cooling Degree Days 12 2  
Month to date cooling degree days 45 28  
Year to date cooling degree days 53 48  
Growing Degree Days 26 (Base 50)    
Moisture  
Dew Point 69 °F    
Average Humidity 76    
Maximum Humidity 93    
Minimum Humidity 58    
Precipitation  
Precipitation 0.00 in 0.17 in 1.45 in (1918)
Month to date precipitation 3.17 2.77  
Year to date precipitation 18.30 15.99  
Snow  
Snow 0.00 in 0.00 in - ()
Month to date snowfall 0.0 0.0  
Since 1 July snowfall 2.1 3.1  
Snow Depth 0.00 in    
Sea Level Pressure  
Sea Level Pressure 29.95 in    
Wind  
Wind Speed 12 mph (SSE)    
Max Wind Speed 23 mph    
Max Gust Speed 30 mph    
Visibility 10 miles    
Events      
T = Trace of Precipitation, MM = Missing Value Source: NWS Daily Summary

Daily Weather History Graph

Daily Weather History Graph

Search for Another Location

Airport or City:

Trip Planner

Search our weather history database for the weather conditions in past years. The results will help you decide how hot, cold, wet, or windy it might be!

Date:

Astronomy

Apr. 17, 2013 Rise Set
Actual Time 6:33 AM CDT 7:41 PM CDT
Civil Twilight 6:07 AM CDT 8:07 PM CDT
Nautical Twilight 5:37 AM CDT 8:37 PM CDT
Astronomical Twilight 5:05 AM CDT 9:09 PM CDT
Moon 11:53 AM CDT (4/17) 1:13 AM CDT (4/17)
Length of Visible Light 13h 59m
Length of Day
13h 07m
Waxing Crescent, 42% of the Moon is Illuminated
Apr 17
Waxing Crescent
Apr 18
First Quarter
Apr 25
Full
May 2
Last Quarter
May 9
New

Hourly Weather History & Observations

Time (CDT) Temp. Heat Index Dew Point Humidity Pressure Visibility Wind Dir Wind Speed Gust Speed Precip Events Conditions
12:53 AM 72.0 °F - 68.0 °F 87% 30.00 in 10.0 mi South 8.1 mph - N/A   Clear
1:53 AM 73.0 °F - 68.0 °F 84% 30.00 in 10.0 mi SSE 8.1 mph - N/A   Overcast
2:53 AM 72.0 °F - 68.0 °F 87% 29.99 in 10.0 mi SSE 4.6 mph - N/A   Mostly Cloudy
3:53 AM 71.1 °F - 68.0 °F 90% 29.99 in 10.0 mi SSE 5.8 mph - N/A   Overcast
4:53 AM 72.0 °F - 69.1 °F 91% 30.00 in 10.0 mi South 8.1 mph - N/A   Mostly Cloudy
5:02 AM 71.6 °F - 69.8 °F 94% 30.01 in 10.0 mi South 5.8 mph - N/A   Mostly Cloudy
5:35 AM 71.6 °F - 69.8 °F 94% 30.01 in 9.0 mi South 6.9 mph - N/A   Mostly Cloudy
5:44 AM 71.6 °F - 69.8 °F 94% 30.01 in 9.0 mi South 6.9 mph - N/A   Mostly Cloudy
5:53 AM 71.1 °F - 69.1 °F 93% 30.01 in 9.0 mi South 6.9 mph - N/A   Overcast
6:37 AM 71.6 °F - 69.8 °F 94% 30.02 in 8.0 mi SSE 6.9 mph - N/A   Scattered Clouds
6:53 AM 71.1 °F - 69.1 °F 93% 30.01 in 6.0 mi South 8.1 mph - N/A   Clear
7:38 AM 71.6 °F - 69.8 °F 94% 30.04 in 7.0 mi South 8.1 mph - N/A   Mostly Cloudy
7:53 AM 73.0 °F - 70.0 °F 90% 30.04 in 7.0 mi South 10.4 mph - N/A   Mostly Cloudy
8:53 AM 73.4 °F - 71.6 °F 94% 30.03 in 10.0 mi South 13.8 mph - N/A   Mostly Cloudy
9:31 AM 75.2 °F - 69.8 °F 83% 30.03 in 10.0 mi South 9.2 mph - N/A   Mostly Cloudy
9:53 AM 75.0 °F - 70.0 °F 84% 30.03 in 10.0 mi South 11.5 mph - N/A   Mostly Cloudy
10:53 AM 77.0 °F - 70.0 °F 79% 30.01 in 10.0 mi South 12.7 mph 20.7 mph N/A   Overcast
11:53 AM 80.1 °F 83.6 °F 71.1 °F 74% 29.99 in 10.0 mi South 13.8 mph - N/A   Mostly Cloudy
12:53 PM 80.1 °F 83.2 °F 70.0 °F 71% 29.97 in 10.0 mi South 12.7 mph - N/A   Mostly Cloudy
1:53 PM 82.0 °F 85.9 °F 70.0 °F 67% 29.94 in 10.0 mi South 12.7 mph 24.2 mph N/A   Scattered Clouds
2:53 PM 82.0 °F 85.9 °F 70.0 °F 67% 29.91 in 10.0 mi South 16.1 mph 24.2 mph N/A   Scattered Clouds
3:53 PM 82.9 °F 86.5 °F 69.1 °F 63% 29.88 in 10.0 mi South 16.1 mph - N/A   Mostly Cloudy
4:53 PM 82.0 °F 85.5 °F 69.1 °F 65% 29.86 in 10.0 mi SSE 16.1 mph 23.0 mph N/A   Partly Cloudy
5:53 PM 82.0 °F 84.1 °F 66.0 °F 58% 29.84 in 10.0 mi South 18.4 mph 26.5 mph N/A   Clear
6:53 PM 79.0 °F - 68.0 °F 69% 29.83 in 10.0 mi SSE 9.2 mph - N/A   Clear
7:53 PM 77.0 °F - 68.0 °F 74% 29.82 in 10.0 mi SSE 10.4 mph - N/A   Clear
8:53 PM 77.0 °F - 66.9 °F 71% 29.81 in 10.0 mi SSE 11.5 mph - N/A   Clear
9:53 PM 77.0 °F - 66.9 °F 71% 29.82 in 10.0 mi South 12.7 mph - N/A   Clear
10:53 PM 77.0 °F - 66.9 °F 71% 29.81 in 10.0 mi South 13.8 mph - N/A   Partly Cloudy
11:53 PM 75.9 °F - 66.9 °F 74% 29.80 in 10.0 mi SSE 13.8 mph - N/A   Clear